Location: Ford County Road and Bridge Department
(37.7686°N, 99.9762°W)
Time: 03:27:46
(UTC+00:00)

Cosmos 2297 Rocket - Pass Details

Date: 18 January 2020
Orbit: 838 x 845 km, 71.0° (Epoch: 18 February)

Event Time Altitude Azimuth Distance (km) Brightness Sun altitude
Rises 02:08:01 0° 214° (SW) 3,377 5.9 -27.6°
Reaches altitude 10° 02:10:30 10° 219° (SW) 2,447 5.1 -28.1°
Maximum altitude 02:15:59 53° 296° (WNW) 1,026 2.8 -29.1°
Enters shadow 02:17:38 40° 345° (NNW) 1,228 3.0 -29.5°
